Hourly Data Report for October 22, 2014

All times are specified in Local Standard Time (LST). Add 1 hour to adjust for Daylight Saving Time where and when it is observed.

OTTAWA INTL A
ONTARIO

45°19'00.000" N
75°40'00.000" W
114.90 m
6106001
71628
YOW

Download Data

Hourly Data (October 2014)
Hourly Data Report for October 22, 2014
Temp Definition
°C
Dew Point Temp Definition
°C
Rel Hum Definition
%
Wind Dir Definition
10's deg

Wind Spd Definition
km/h
Visibility Definition
km
Stn Press Definition
kPa
Hmdx Definition


Wind Chill Definition


Weather Definition


TIME
00:00 Legend Double Dagger 6.6 0.1 63 3 18 24.1 100.86     LegendNANA
01:00 Legend Double Dagger 6.6 -0.2 62 3 22 24.1 100.84     Mostly Cloudy
02:00 Legend Double Dagger 5.7 0.3 68 1 18 24.1 100.84     LegendNANA
03:00 Legend Double Dagger 5.6 0.2 68 1 19 24.1 100.87     LegendNANA
04:00 Legend Double Dagger 5.7 0.1 67 2 21 24.1 100.93     Cloudy
05:00 Legend Double Dagger 5.7 0.1 67 2 25 24.1 100.97     LegendNANA
06:00 Legend Double Dagger 5.6 0.4 69 1 19 24.1 101.00     LegendNANA
07:00 Legend Double Dagger 5.1 0.7 73 36 13 24.1 101.09     Mostly Cloudy
08:00 Legend Double Dagger 5.6 1.0 72 36 17 24.1 101.16     LegendNANA
09:00 Legend Double Dagger 6.9 1.2 67 1 20 24.1 101.16     LegendNANA
10:00 Legend Double Dagger 8.6 2.6 66 3 22 24.1 101.19     Mostly Cloudy
11:00 Legend Double Dagger 8.9 3.3 68 6 26 24.1 101.20     LegendNANA
12:00 Legend Double Dagger 9.8 4.0 67 6 19 24.1 101.18     LegendNANA
13:00 Legend Double Dagger 10.5 4.7 67 5 21 24.1 101.13     Mostly Cloudy
14:00 Legend Double Dagger 11.0 4.9 66 2 27 24.1 101.05     LegendNANA
15:00 Legend Double Dagger 11.9 5.6 65 4 23 24.1 101.04     LegendNANA
16:00 Legend Double Dagger 12.3 5.7 64 3 16 24.1 101.03     Mainly Clear
17:00 Legend Double Dagger 11.3 5.7 68 5 8 24.1 101.01     LegendNANA
18:00 Legend Double Dagger 9.5 5.7 77 2 9 24.1 101.04     LegendNANA
19:00 Legend Double Dagger 9.7 4.9 72 2 14 24.1 101.02     Mainly Clear
20:00 Legend Double Dagger 8.3 4.2 75 3 14 24.1 101.04     LegendNANA
21:00 Legend Double Dagger 8.1 3.4 72 1 16 24.1 101.00     LegendNANA
22:00 Legend Double Dagger 7.1 2.6 73 1 13 24.1 100.95     Clear
23:00 Legend Double Dagger 6.8 1.9 71 2 15 24.1 100.89     LegendNANA

Notes on Data Quality.

Legend

  • E = Estimated
  • M = Missing
  • NA = Not Available
  • ‡ = Partner data that is not subject to review by the National Climate Archives
Date modified: